RESOURCESAT-2

Last updated on Thu Mar 05 2026 00:02:38 GMT+0000 (Coordinated Universal Time)

1 37387U 11015A 26063.64422775 -.00000213 00000+0 -77042-4 0 9991 2 37387 98.7733 131.7633 0006204 152.2262 207.9248 14.21485704771321
UTC large
Height (km)
Speed (km/s)
/
Latitude / Longitude
Inclination (degrees)
Orbital Period (minutes)
Azimuth
Elevation
Range (km)
Doppler Factor

Next 0 passes for location: London (51.5072 / 0.1276)

Sorry there are no passes over London.